KC5EZZ-2 Weather Reports


time (UTC)temp
F
wind
direction
speed
knots
gust
knots
rain 1hr
in
rain 24hr
in
rain mn
in
humidity
%
barometer
mb
20260505111835 67 233 6.1 7.0 0.00 0.00 0.00
20260505111333 67 188 5.2 6.1 0.00 0.00 0.00
20260505110833 68 245 5.2 6.1 0.00 0.00 0.00
20260505110408 68 194 7.0 7.8 0.00 0.00 0.00
20260505110333 68 194 7.0 7.8 0.00 0.00 0.00
20260505101828 69 194 7.8 7.0 0.00 0.00 0.00
20260505101414 69 191 6.1 7.8 0.00 0.00 0.00
20260505101325 69 191 6.1 7.8 0.00 0.00 0.00
20260505100826 69 170 7.8 7.8 0.00 0.00 0.00
20260505100326 69 172 7.8 6.1 0.00 0.00 0.00
20260505095824 69 191 8.7 7.8 0.00 0.00 0.00
20260505095324 69 194 8.7 9.6 0.00 0.00 0.00
20260505094825 69 203 7.8 8.7 0.00 0.00 0.00
20260505094401 69 187 9.6 10.4 0.00 0.00 0.00
20260505094323 69 187 9.6 10.4 0.00 0.00 0.00
20260505093324 69 195 7.8 7.0 0.00 0.00 0.00
20260505092821 69 176 7.0 7.8 0.00 0.00 0.00
20260505092322 69 184 8.7 8.7 0.00 0.00 0.00
20260505091822 70 204 8.7 7.0 0.00 0.00 0.00
20260505091319 69 205 7.8 5.2 0.00 0.00 0.00
20260505090820 70 197 9.6 11.3 0.00 0.00 0.00
20260505090320 69 194 7.8 9.6 0.00 0.00 0.00
20260505085817 69 198 7.8 7.8 0.00 0.00 0.00
20260505085318 69 201 10.4 7.0 0.00 0.00 0.00
20260505084818 69 219 7.0 7.0 0.00 0.00 0.00
20260505084316 70 205 7.0 6.1 0.00 0.00 0.00
20260505083816 70 176 10.4 10.4 0.00 0.00 0.00
20260505083317 70 211 9.6 8.7 0.00 0.00 0.00
20260505082814 70 207 7.8 8.7 0.00 0.00 0.00
20260505082350 70 194 7.8 8.7 0.00 0.00 0.00
20260505082316 70 194 7.8 8.7 0.00 0.00 0.00
20260505081857 70 170 8.7 7.8 0.00 0.00 0.00
20260505081815 70 170 8.7 7.8 0.00 0.00 0.00
20260505081313 70 173 10.4 10.4 0.00 0.00 0.00
20260505080813 70 207 8.7 5.2 0.00 0.00 0.00
20260505080314 70 198 11.3 8.7 0.00 0.00 0.00
20260505075811 70 207 8.7 8.7 0.00 0.00 0.00
20260505075312 70 186 10.4 10.4 0.00 0.00 0.00
20260505074812 70 193 8.7 11.3 0.00 0.00 0.00
20260505074310 70 204 9.6 14.8 0.00 0.00 0.00
20260505073810 71 170 11.3 7.8 0.00 0.00 0.00
20260505073311 71 183 13.9 12.2 0.00 0.00 0.00
20260505072808 71 183 11.3 12.2 0.00 0.00 0.00
20260505072309 71 195 12.2 10.4 0.00 0.00 0.00
20260505071809 71 158 13.0 9.6 0.00 0.00 0.00
20260505071307 71 184 10.4 9.6 0.00 0.00 0.00
20260505070807 71 193 8.7 10.4 0.00 0.00 0.00
20260505070307 71 176 10.4 11.3 0.00 0.00 0.00
20260505065805 71 193 11.3 11.3 0.00 0.00 0.00
20260505065305 71 177 8.7 6.1 0.00 0.00 0.00
20260505064806 71 184 11.3 12.2 0.00 0.00 0.00
20260505064303 71 203 9.6 7.0 0.00 0.00 0.00
20260505063804 71 204 9.6 7.8 0.00 0.00 0.00
20260505063304 71 167 9.6 9.6 0.00 0.00 0.00
20260505062801 71 169 11.3 9.6 0.00 0.00 0.00
20260505062301 72 169 11.3 12.2 0.00 0.00 0.00
20260505061801 72 190 9.6 8.7 0.00 0.00 0.00
20260505061259 72 163 9.6 9.6 0.00 0.00 0.00
20260505060759 72 177 10.4 9.6 0.00 0.00 0.00
20260505060300 72 166 9.6 10.4 0.00 0.00 0.00
20260505055757 72 188 10.4 15.6 0.00 0.00 0.00
20260505055258 72 141 9.6 12.2 0.00 0.00 0.00
20260505054758 73 176 12.2 10.4 0.00 0.00 0.00
20260505054256 73 163 10.4 10.4 0.00 0.00 0.00
20260505053756 73 170 14.8 9.6 0.00 0.00 0.00
20260505053257 73 188 10.4 13.0 0.00 0.00 0.00
20260505052754 73 167 8.7 11.3 0.00 0.00 0.00
20260505052255 73 193 12.2 16.5 0.00 0.00 0.00
20260505051755 73 177 11.3 13.0 0.00 0.00 0.00
20260505051253 73 153 13.9 10.4 0.00 0.00 0.00
20260505050753 73 166 10.4 10.4 0.00 0.00 0.00
20260505050255 73 180 11.3 9.6 0.00 0.00 0.00
20260505041748 75 173 11.3 10.4 0.00 0.00 0.00
20260505041246 75 194 9.6 10.4 0.00 0.00 0.00
20260505040746 75 162 12.2 11.3 0.00 0.00 0.00
20260505040246 75 124 9.6 11.3 0.00 0.00 0.00
20260505035846 75 193 10.4 8.7 0.00 0.00 0.00
20260505035744 75 193 10.4 8.7 0.00 0.00 0.00
20260505035359 75 170 9.6 12.2 0.00 0.00 0.00
20260505035244 75 170 9.6 12.2 0.00 0.00 0.00
20260505034745 76 165 9.6 8.7 0.00 0.00 0.00
20260505034242 75 210 9.6 12.2 0.00 0.00 0.00
20260505034002 76 149 10.4 8.7 0.00 0.00 0.00
20260505033743 76 149 10.4 8.7 0.00 0.00 0.00
20260505033243 76 162 9.6 13.0 0.00 0.00 0.00
20260505032741 76 186 10.4 12.2 0.00 0.00 0.00
20260505032241 76 160 10.4 9.6 0.00 0.00 0.00
20260505031742 76 184 9.6 6.1 0.00 0.00 0.00
20260505031239 76 172 10.4 8.7 0.00 0.00 0.00
20260505030740 77 158 9.6 11.3 0.00 0.00 0.00
20260505030240 77 193 7.8 7.8 0.00 0.00 0.00
20260505025738 77 146 7.0 7.0 0.00 0.00 0.00
20260505025238 77 191 8.7 7.0 0.00 0.00 0.00
20260505024739 77 184 11.3 9.6 0.00 0.00 0.00
20260505024236 77 174 7.8 7.0 0.00 0.00 0.00
20260505023737 77 190 8.7 7.0 0.00 0.00 0.00
20260505023237 78 167 8.7 10.4 0.00 0.00 0.00
20260505022734 78 190 7.8 6.1 0.00 0.00 0.00
20260505022235 78 176 8.7 12.2 0.00 0.00 0.00
20260505021735 78 148 12.2 10.4 0.00 0.00 0.00
20260505021233 79 173 8.7 9.6 0.00 0.00 0.00
20260505020733 79 155 8.7 9.6 0.00 0.00 0.00
20260505020234 79 162 10.4 9.6 0.00 0.00 0.00
20260505015731 79 174 7.8 13.0 0.00 0.00 0.00
20260505015232 79 158 7.0 7.8 0.00 0.00 0.00
20260505014732 80 172 8.7 7.8 0.00 0.00 0.00
20260505014230 80 177 8.7 11.3 0.00 0.00 0.00
20260505013730 80 177 7.0 6.1 0.00 0.00 0.00
20260505013231 80 169 7.0 6.1 0.00 0.00 0.00
20260505012728 80 143 7.8 10.4 0.00 0.00 0.00
20260505012229 81 172 8.7 8.7 0.00 0.00 0.00
20260505011729 82 197 8.7 7.8 0.00 0.00 0.00
20260505011227 82 184 7.8 7.0 0.00 0.00 0.00
20260505010227 83 186 8.7 6.1 0.00 0.00 0.00
20260505005226 83 212 10.4 8.7 0.00 0.00 0.00
20260505004726 83 187 9.6 10.4 0.00 0.00 0.00
20260505004224 84 183 10.4 12.2 0.00 0.00 0.00
20260505003724 84 190 11.3 12.2 0.00 0.00 0.00
20260505003225 84 201 7.0 7.8 0.00 0.00 0.00
20260505002722 84 162 7.8 11.3 0.00 0.00 0.00
20260505002223 85 188 8.7 12.2 0.00 0.00 0.00
20260505001723 85 208 7.8 9.6 0.00 0.00 0.00
20260505001221 85 173 8.7 9.6 0.00 0.00 0.00
20260505000721 85 207 8.7 9.6 0.00 0.00 0.00
20260505000221 86 198 9.6 7.8 0.00 0.00 0.00
20260504235219 87 204 10.4 9.6 0.00 0.00 0.00
20260504234720 87 215 8.7 5.2 0.00 0.00 0.00
20260504234217 87 180 10.4 8.7 0.00 0.00 0.00
20260504233718 88 208 7.8 9.6 0.00 0.00 0.00
20260504233218 88 158 13.0 13.9 0.00 0.00 0.00
20260504232716 88 179 10.4 13.9 0.00 0.00 0.00
20260504232216 88 203 13.9 13.9 0.00 0.00 0.00
20260504231716 88 152 7.8 7.0 0.00 0.00 0.00
20260504231214 88 208 11.3 7.8 0.00 0.00 0.00
20260504230714 89 180 11.3 7.8 0.00 0.00 0.00
20260504230214 89 184 11.3 15.6 0.00 0.00 0.00
20260504225712 89 173 12.2 13.9 0.00 0.00 0.00
20260504225212 90 174 13.0 10.4 0.00 0.00 0.00
20260504224712 90 193 12.2 12.2 0.00 0.00 0.00
20260504224210 89 221 13.0 14.8 0.00 0.00 0.00
20260504223710 91 180 7.8 8.7 0.00 0.00 0.00
20260504223211 90 191 13.9 13.0 0.00 0.00 0.00
20260504222708 90 203 11.3 8.7 0.00 0.00 0.00
20260504222208 90 187 11.3 12.2 0.00 0.00 0.00
20260504221709 89 180 10.4 11.3 0.00 0.00 0.00
20260504221206 91 160 11.3 12.2 0.00 0.00 0.00
20260504220707 90 187 13.0 12.2 0.00 0.00 0.00
20260504220207 90 179 12.2 13.0 0.00 0.00 0.00
20260504215705 91 214 9.6 10.4 0.00 0.00 0.00
20260504215205 90 188 12.2 9.6 0.00 0.00 0.00
20260504214706 90 207 11.3 9.6 0.00 0.00 0.00
20260504214203 90 155 11.3 13.9 0.00 0.00 0.00
20260504213703 91 149 9.6 7.8 0.00 0.00 0.00
20260504213204 91 193 8.7 13.9 0.00 0.00 0.00
20260504212701 91 170 11.3 6.1 0.00 0.00 0.00
20260504212201 91 184 10.4 10.4 0.00 0.00 0.00
20260504211702 90 204 12.2 10.4 0.00 0.00 0.00
20260504211159 91 169 13.0 10.4 0.00 0.00 0.00
20260504210659 91 191 10.4 11.3 0.00 0.00 0.00
20260504210200 91 176 11.3 14.8 0.00 0.00 0.00
20260504205657 90 160 11.3 12.2 0.00 0.00 0.00
20260504205158 91 166 10.4 11.3 0.00 0.00 0.00
20260504204658 90 198 11.3 10.4 0.00 0.00 0.00
20260504204155 90 208 11.3 9.6 0.00 0.00 0.00
20260504203656 90 201 9.6 8.7 0.00 0.00 0.00
20260504203156 90 219 8.7 8.7 0.00 0.00 0.00
20260504202654 90 201 9.6 7.0 0.00 0.00 0.00
20260504202153 90 125 7.8 11.3 0.00 0.00 0.00
20260504201653 91 167 12.2 12.2 0.00 0.00 0.00
20260504201418 78 195 11.3 12.2 0.00 0.00 0.00
20260504201151 90 173 7.0 10.4 0.00 0.00 0.00
20260504200651 90 176 8.7 7.8 0.00 0.00 0.00
20260504200151 90 158 8.7 5.2 0.00 0.00 0.00
20260504195649 90 181 12.2 6.1 0.00 0.00 0.00
20260504195149 90 184 7.8 14.8 0.00 0.00 0.00
20260504194649 89 143 6.1 9.6 0.00 0.00 0.00
20260504194147 88 183 9.6 9.6 0.00 0.00 0.00
20260504193647 89 180 7.8 8.7 0.00 0.00 0.00
20260504193148 87 186 9.6 13.9 0.00 0.00 0.00
20260504192658 87 187 10.4 7.8 0.00 0.00 0.00
20260504192645 87 163 8.7 9.6 0.00 0.00 0.00
20260504192145 87 187 10.4 7.8 0.00 0.00 0.00
20260504191646 87 166 8.7 11.3 0.00 0.00 0.00
20260504191143 85 200 7.8 8.7 0.00 0.00 0.00
20260504190644 86 180 8.7 13.0 0.00 0.00 0.00
20260504190144 85 187 9.6 12.2 0.00 0.00 0.00
20260504185641 85 198 11.3 12.2 0.00 0.00 0.00
20260504185142 86 191 10.4 8.7 0.00 0.00 0.00
20260504184642 85 184 9.6 13.0 0.00 0.00 0.00
20260504184139 85 186 10.4 8.7 0.00 0.00 0.00
20260504183640 84 170 9.6 10.4 0.00 0.00 0.00
20260504183140 85 169 8.7 7.8 0.00 0.00 0.00
20260504182638 84 240 9.6 6.1 0.00 0.00 0.00
20260504182138 85 163 10.4 9.6 0.00 0.00 0.00
20260504181639 84 195 10.4 9.6 0.00 0.00 0.00
20260504181136 83 208 13.0 7.0 0.00 0.00 0.00
20260504180637 82 218 13.0 8.7 0.00 0.00 0.00
20260504180137 84 167 10.4 12.2 0.00 0.00 0.00
20260504175634 83 208 9.6 8.7 0.00 0.00 0.00
20260504175135 83 193 10.4 11.3 0.00 0.00 0.00
20260504174635 82 167 7.8 9.6 0.00 0.00 0.00
20260504174133 81 160 10.4 13.0 0.00 0.00 0.00
20260504173630 81 187 9.6 7.8 0.00 0.00 0.00
20260504173131 83 207 10.4 14.8 0.00 0.00 0.00
20260504172628 83 165 9.6 13.0 0.00 0.00 0.00
20260504172129 81 163 8.7 7.8 0.00 0.00 0.00
20260504171630 81 172 7.8 10.4 0.00 0.00 0.00
20260504171127 81 181 7.8 8.7 0.00 0.00 0.00
20260504170627 80 212 10.4 8.7 0.00 0.00 0.00
20260504170128 80 194 10.4 12.2 0.00 0.00 0.00
20260504160120 75 201 9.6 8.7 0.00 0.00 0.00
20260504151112 71 194 14.8 16.5 0.00 0.00 0.00
20260504150612 71 167 13.9 13.0 0.00 0.00 0.00
20260504150113 71 134 11.3 7.8 0.00 0.00 0.00
20260504141104 68 162 10.4 14.8 0.00 0.00 0.00
20260504140605 67 177 13.0 8.7 0.00 0.00 0.00
20260504140105 67 198 8.7 7.8 0.00 0.00 0.00
20260504130558 67 218 6.1 6.1 0.00 0.00 0.00